#timestamp,LO_Frequency,Hit,StdDev 
1579612775.2,286046998.2,P
1579612795.0,286046998.6,N
1579612795.9,286046998.6,N
1579612815.8,286046998.6,N
1579612835.6,286046998.8,N
1579612855.4,286046999.4,N
1579612875.3,286046998.7,N
1579612895.1,286046996.5,Y
1579612915.9,286046999.5,P
1579612935.7,286046999.4,N
1579612955.5,286046999.1,P
1579612975.4,286047000.3,N
1579612995.2,286046999.8,N
1579613015.0,286047000.4,N
1579613015.9,286047000.4,N
1579613035.8,286046998.3,Y
1579613055.6,286047000.5,P
1579613075.5,286046998.2,P
1579613095.3,286047000.6,N
1579613115.1,286047000.0,N
1579613135.9,286046998.3,N
1579613155.7,286046996.7,Y
1579613175.5,286046998.5,P
1579613195.4,286047001.2,N
1579613215.2,286046998.2,N
1579613235.1,286047001.2,N
1579613236.0,286047001.2,N
1579613255.8,286047002.7,N
1579613275.6,286047003.5,N
1579613295.5,286047005.6,Y
1579613315.3,286047001.4,P
1579613335.1,286047001.3,P
1579613355.9,286047001.4,P
1579613375.7,286047004.4,Y
1579613395.6,286047001.6,P
1579613415.4,286047001.3,P
1579613435.2,286047002.5,P
1579613455.1,286047002.6,Y
1579613456.0,286047002.6,P
1579613475.8,286046999.6,N
1579613495.7,286046998.8,N
1579613515.5,286046998.6,N
1579613535.3,286047001.0,N
1579613555.2,286047000.6,N
1579613575.9,286047001.2,N
1579613595.7,286047000.5,N
1579613615.6,286047000.3,N
1579613635.4,286047000.1,N
1579613655.2,286047002.7,N
1579613675.1,286047002.2,N
1579613676.0,286047002.2,N
1579613695.8,286047001.3,N
1579613715.7,286047002.2,N
1579613735.5,286047002.4,N
1579613755.3,286047002.7,N
1579613775.2,286047001.4,N
1579613795.0,286047005.6,Y
1579613795.9,286047005.6,P
1579613815.7,286047003.5,N
1579613835.6,286047003.5,N
1579613855.4,286047003.9,N
1579613875.3,286046999.8,N
1579613895.1,286047002.0,N
1579613896.0,286047002.0,N
1579613915.8,286047004.1,N
1579613935.7,286047001.7,N
1579613955.5,286047003.9,N
1579613975.4,286047005.9,Y
1579613995.2,286047000.6,P
1579614015.0,286046999.9,N
1579614015.9,286046999.9,N
1579614035.8,286047000.6,N
1579614055.6,286047000.8,N
1579614075.4,286046999.2,N
1579614095.3,286046998.4,N
1579614115.1,286047000.7,N
1579614135.9,286046998.6,N
1579614155.7,286047000.7,N
1579614175.5,286046999.8,N
1579614195.4,286047000.4,N
1579614215.2,286047000.9,N
1579614235.0,286047000.9,N
1579614235.9,286047000.9,N
1579614255.8,286047001.9,N
1579614275.6,286047002.2,N
1579614295.5,286046999.8,N
1579614315.3,286047002.1,N
1579614335.1,286047004.0,Y
1579614355.9,286047003.8,P
1579614375.7,286047003.8,N
1579614395.6,286047001.7,N
1579614415.4,286047003.7,N
1579614435.2,286047003.2,N
1579614455.1,286047005.5,Y
1579614456.0,286047005.5,P
1579614475.8,286047001.5,N
1579614495.7,286047003.4,N
1579614515.5,286047004.5,Y
1579614535.3,286047005.5,P
1579614555.2,286047005.9,P
1579614575.0,286047007.5,P
1579614575.9,286047007.5,Y
1579614595.8,286047002.2,P
1579614615.6,286047004.3,N
1579614635.4,286047002.0,N
1579614655.3,286047000.3,N
1579614675.1,286047002.7,N
1579614695.8,286047000.9,N
1579614715.7,286047001.9,N
1579614735.5,286047001.6,N
1579614755.4,286047002.0,N
1579614775.2,286046999.8,N
1579614795.0,286047003.9,N
1579614795.9,286047003.9,N
1579614815.8,286047003.5,N
1579614835.6,286047004.2,N
1579614855.4,286047002.1,N
1579614875.3,286047001.5,N
1579614895.1,286047002.8,N
1579614915.9,286047000.5,N
1579614935.7,286046998.7,N
1579614955.5,286046999.3,N
1579614975.4,286046999.4,N
1579614995.2,286046998.4,N
1579615015.0,286046998.5,N
1579615015.9,286046998.5,N
1579615035.8,286046999.7,N
1579615055.6,286047000.3,N
1579615075.5,286047001.1,N
1579615095.3,286047000.4,N
1579615115.1,286046999.9,N
1579615135.9,286047002.3,N
1579615155.7,286047001.9,N
1579615175.5,286047002.2,N
1579615195.4,286047003.5,N
